Meridian, MS

3:42 PM CDT on October 15, 2019 (GMT -0500)
Key

Weather History for KMEI - August, 2019

Change the Weather History Date:

Tuesday, August 27, 2019

  Actual Average Record
Temperature  
Mean Temperature 84 °F 80 °F  
Max Temperature 93 °F 91 °F 105 °F (2007)
Min Temperature 73 °F 68 °F 55 °F (1917)
Degree Days  
Heating Degree Days 0 0  
Month to date heating degree days 0 0  
Since 1 June heating degree days 0 0  
Since 1 July heating degree days 0 0  
Cooling Degree Days 18 15  
Month to date cooling degree days 508 419  
Year to date cooling degree days 2023 1566  
Since 1 June cooling degree days 1527 1283  
Growing Degree Days 34 (Base 50)    
Moisture  
Dew Point 73 °F    
Average Humidity 84    
Maximum Humidity 94    
Minimum Humidity 59    
Precipitation  
Precipitation 0.16 in 0.11 in 4.19 in (1992)
Month to date precipitation 4.37 3.56  
Year to date precipitation 42.95 38.53  
Sea Level Pressure  
Sea Level Pressure 29.94 in    
Wind  
Wind Speed 4 mph ()    
Max Wind Speed 32 mph    
Max Gust Speed 39 mph    
Visibility 8.6 miles    
Events Rain , Thunderstorm    
T = Trace of Precipitation, MM = Missing Value Source: Averaged Metar Reports

Daily Weather History Graph

Daily Weather History Graph

Search for Another Location

Airport or City:

Astronomy

Aug. 27, 2019 Rise Set
Actual Time 6:26 AM CDT 7:25 PM CDT
Civil Twilight 6:01 AM CDT 7:51 PM CDT
Nautical Twilight 5:31 AM CDT 8:20 PM CDT
Astronomical Twilight 5:00 AM CDT 8:51 PM CDT
Moon 3:03 AM CDT (8/27) 5:35 PM CDT (8/27)
Length of Visible Light 13h 49m
Length of Day
12h 59m
Waning Crescent, 11% of the Moon is Illuminated
Aug 27
Waning Crescent
Aug 30
New
Sep 5
First Quarter
Sep 13
Full
Sep 21
Last Quarter

Hourly Weather History & Observations

Time (CDT) Temp. Heat Index Dew Point Humidity Pressure Visibility Wind Dir Wind Speed Gust Speed Precip Events Conditions
12:53 AM 75.2 °F - 73.4 °F 94% 29.90 in 10.0 mi South 4.6 mph - N/A   Mostly Cloudy
12:58 AM 75.9 °F - 73.0 °F 91% 29.90 in 10.0 mi South 4.6 mph - N/A   Mostly Cloudy
1:58 AM 75.0 °F - 72.0 °F 90% 29.90 in 10.0 mi South 5.8 mph - N/A   Mostly Cloudy
2:11 AM 75.0 °F - 72.0 °F 90% 29.91 in 10.0 mi South 5.8 mph - N/A   Scattered Clouds
2:58 AM 75.0 °F - 72.0 °F 90% 29.90 in 10.0 mi South 6.9 mph - N/A   Overcast
3:15 AM 75.0 °F - 72.0 °F 90% 29.91 in 10.0 mi SSW 5.8 mph - N/A   Overcast
3:32 AM 75.0 °F - 72.0 °F 90% 29.92 in 10.0 mi SW 3.5 mph - N/A   Overcast
3:58 AM 75.0 °F - 72.0 °F 90% 29.92 in 10.0 mi SW 3.5 mph - N/A   Overcast
4:14 AM 75.0 °F - 72.0 °F 90% 29.93 in 10.0 mi SSW 4.6 mph - N/A   Overcast
4:58 AM 73.9 °F - 72.0 °F 93% 29.91 in 10.0 mi South 4.6 mph - N/A   Mostly Cloudy
5:05 AM 73.9 °F - 72.0 °F 93% 29.92 in 10.0 mi SSE 3.5 mph - N/A   Scattered Clouds
5:13 AM 73.9 °F - 72.0 °F 93% 29.93 in 10.0 mi Calm Calm - N/A   Mostly Cloudy
5:58 AM 75.0 °F - 72.0 °F 90% 29.93 in 10.0 mi Calm Calm - N/A   Overcast
6:31 AM 75.0 °F - 72.0 °F 90% 29.96 in 10.0 mi NW 3.5 mph - N/A   Overcast
6:48 AM 75.9 °F - 73.0 °F 91% 29.96 in 9.0 mi Calm Calm - N/A   Overcast
6:58 AM 75.9 °F - 72.0 °F 87% 29.96 in 10.0 mi Calm Calm - N/A   Overcast
7:58 AM 75.9 °F - 73.0 °F 91% 29.96 in 6.0 mi Calm Calm - N/A   Overcast
8:18 AM 77.0 °F - 73.0 °F 88% 29.97 in 5.0 mi West 4.6 mph - N/A   Overcast
8:38 AM 77.0 °F - 73.9 °F 90% 29.97 in 2.0 mi SW 4.6 mph - N/A   Overcast
8:58 AM 77.0 °F - 73.9 °F 90% 29.96 in 2.0 mi SSW 3.5 mph - N/A   Overcast
9:35 AM 79.0 °F - 75.0 °F 88% 29.98 in 2.0 mi WSW 3.5 mph - N/A   Overcast
9:58 AM 80.1 °F 85.1 °F 75.0 °F 85% 29.98 in 2.0 mi SW 4.6 mph - N/A   Haze
10:05 AM 81.0 °F 87.3 °F 75.9 °F 85% 29.99 in 10.0 mi SW 4.6 mph - N/A   Mostly Cloudy
10:25 AM 84.0 °F 92.6 °F 75.9 °F 76% 29.98 in 10.0 mi West 5.8 mph - N/A   Mostly Cloudy
10:37 AM 84.9 °F 94.1 °F 75.9 °F 74% 29.98 in 10.0 mi West 10.4 mph - N/A   Mostly Cloudy
10:58 AM 87.1 °F 98.8 °F 77.0 °F 72% 29.96 in 10.0 mi WSW 6.9 mph - N/A   Mostly Cloudy
11:58 AM 89.1 °F 101.4 °F 77.0 °F 67% 29.95 in 10.0 mi West 12.7 mph 18.4 mph N/A   Mostly Cloudy
12:58 PM 89.1 °F 100.2 °F 75.9 °F 65% 29.92 in 10.0 mi South 9.2 mph - N/A   Partly Cloudy
1:58 PM 91.9 °F 105.9 °F 77.0 °F 62% 29.89 in 10.0 mi SSW 12.7 mph - N/A   Partly Cloudy
2:58 PM 93.0 °F 106.7 °F 77.0 °F 59% 29.87 in 10.0 mi SSW 12.7 mph 20.7 mph N/A   Clear
3:58 PM 91.9 °F 105.9 °F 77.0 °F 62% 29.88 in 10.0 mi SW 8.1 mph - N/A   Mostly Cloudy
4:58 PM 91.9 °F 105.9 °F 77.0 °F 62% 29.88 in 10.0 mi SW 10.4 mph - N/A   Scattered Clouds
5:11 PM 91.0 °F 102.9 °F 75.9 °F 61% 29.89 in 10.0 mi SW 11.5 mph - N/A Thunderstorm Mostly Cloudy
5:30 PM 77.0 °F - 71.1 °F 82% 29.95 in 2.0 mi NNW 13.8 mph 39.1 mph 0.00 in Rain , Thunderstorm Light Thunderstorms and Rain
5:47 PM 75.0 °F - 71.1 °F 87% 29.95 in 4.0 mi WNW 8.1 mph 16.1 mph 0.14 in Rain , Thunderstorm Thunderstorms and Rain
5:58 PM 75.0 °F - 71.1 °F 87% 29.92 in 7.0 mi WSW 3.5 mph - 0.15 in Rain , Thunderstorm Light Thunderstorms and Rain
6:11 PM 75.9 °F - 70.0 °F 82% 29.93 in 10.0 mi Calm Calm - 0.01 in   Scattered Clouds
6:58 PM 75.9 °F - 73.0 °F 91% 29.93 in 10.0 mi South 3.5 mph - 0.01 in   Clear
7:58 PM 75.9 °F - 73.0 °F 91% 29.94 in 10.0 mi Calm Calm - N/A   Partly Cloudy
8:58 PM 75.0 °F - 72.0 °F 90% 29.96 in 10.0 mi Calm Calm - N/A   Clear
9:58 PM 75.0 °F - 72.0 °F 90% 29.99 in 10.0 mi SW 4.6 mph - N/A   Clear
10:58 PM 75.0 °F - 72.0 °F 90% 29.99 in 10.0 mi South 3.5 mph - N/A   Clear
11:58 PM 73.9 °F - 72.0 °F 93% 29.98 in 10.0 mi Calm Calm - N/A   Clear